Stations météo

Publicité
Gourdon, France (7535): Température de l'air & dewpoint: 11.12.2017 22:00:00 - 17.12.2017 22:00:00 (CET)Gourdon, France (7535): Température de l'air 5cm: 11.12.2017 22:00:00 - 17.12.2017 22:00:00 (CET)Gourdon, France (7535): Température de l'air -20cm & Température de l'air -100cm: 11.12.2017 22:00:00 - 17.12.2017 22:00:00 (CET)Gourdon, France (7535): Vitesse du vent & gusts: 11.12.2017 22:00:00 - 17.12.2017 22:00:00 (CET)Gourdon, France (7535): Direction du vent: 11.12.2017 22:00:00 - 17.12.2017 22:00:00 (CET)Gourdon, France (7535): reduced air pressure: 11.12.2017 22:00:00 - 17.12.2017 22:00:00 (CET)Gourdon, France (7535): visibility: 11.12.2017 22:00:00 - 17.12.2017 22:00:00 (CET)Gourdon, France (7535): Ensoleillement: 11.12.2017 22:00:00 - 17.12.2017 22:00:00 (CET)Gourdon, France (7535): Quantités de précipitations: 11.12.2017 22:00:00 - 17.12.2017 22:00:00 (CET)
Date & Time tt [°C] td [°C] tt 5cm [°C] tt -20cm [°C] tt -100cm [°C] ff [km/h] ff [knt] fx [km/h] fx [knt] dd ppp [hPa] vv [km] sd [min] rr [mm]
17.12.2017 22:00:00 3,1 3,0 2,9 5,4 9,1 4 2 6 3 SSE 1032,6 0,3 0 0,0
17.12.2017 21:00:00 3,4 3,3 2,9 5,4 9,1 2 1 5 3 SW 1032,8 1,4 0 0,0
17.12.2017 20:00:00 3,1 3,0 2,6 5,4 9,1 4 2 7 4 SE 1032,4 0,2 0 0,0
17.12.2017 19:00:00 3,3 3,2 1,9 5,3 9,1 0 0 4 2 N 1032,1 0,7 0 0,0
17.12.2017 18:00:00 3,6 3,5 3,3 5,3 9,1 0 0 12 7 N 1031,8 1,0 0 0,0
17.12.2017 17:00:00 3,8 3,7 3,8 5,2 9,2 6 3 10 5 NNE 1031,2 0,2 0 0,0
17.12.2017 16:00:00 3,9 3,8 3,9 5,1 9,1 3 2 6 3 WNW 1030,4 0,3 0 0,0
17.12.2017 15:00:00 3,5 3,4 3,5 5,0 9,2 0 0 4 2 N 1029,8 0,9 0 0,0
17.12.2017 14:00:00 3,0 2,7 3,3 5,0 9,2 0 0 6 3 N 1029,9 1,6 0 0,0
17.12.2017 13:00:00 2,7 2,4 3,3 4,9 9,2 4 2 10 5 N 1030,3 8 0 0,0
17.12.2017 12:00:00 2,7 2,6 2,4 4,9 9,2 3 2 12 6 WSW 1030,6 14 0 0,0
17.12.2017 11:00:00 1,6 1,5 1,1 4,9 9,2 4 2 10 6 SW 1030,9 7 0 0,0
17.12.2017 10:00:00 0,8 0,7 0,0 5,0 9,2 3 2 10 5 SW 1030,4 4,4 0 0,2
17.12.2017 09:00:00 0,3 0,2 -0,6 5,0 9,2 5 3 11 6 SSW 1030,2 8 0 0,0
17.12.2017 08:00:00 -0,8 -0,9 -2,1 5,1 9,2 6 3 9 5 S 1029,9 8 0 0,0
17.12.2017 07:00:00 -1,8 -2,1 -2,9 5,1 9,2 4 2 5 3 SSW 1030,0 7 0 0,0
17.12.2017 06:00:00 -1,8 -2,1 -3,7 5,3 9,3 3 2 4 2 S 1029,8 6 0 0,0
17.12.2017 05:00:00 -1,6 -1,9 -3,2 5,4 9,3 3 2 8 4 SSE 1029,6 4,6 0 0,0
17.12.2017 04:00:00 -2,1 -2,4 -3,9 5,5 9,2 5 3 6 4 S 1029,4 5 0 0,0
17.12.2017 03:00:00 -1,2 -1,5 -3,7 5,6 9,3 4 2 8 4 SW 1029,1 6 0 0,0
17.12.2017 02:00:00 -1,4 -1,7 -3,6 5,7 9,3 4 2 7 4 SSE 1028,8 2,6 0 0,0
17.12.2017 01:00:00 -0,9 -1,2 -3,2 5,8 9,3 4 2 7 4 S 1028,4 2,6 0 0,0
17.12.2017 00:00:00 -0,1 -0,4 -2,2 5,9 9,3 3 1 6 3 WSW 1028,1 3,4 0 0,0
16.12.2017 23:00:00 -0,2 -0,6 -2,3 6,0 9,3 2 1 6 3 S 1028,0 1,9 0 0,0
16.12.2017 22:00:00 1,0 0,6 -2,7 6,0 9,3 3 1 6 4 W 1027,5 7 0 0,0
16.12.2017 21:00:00 1,3 0,7 -1,6 6,1 9,3 0 0 8 4 N 1026,7 3,7 0 0,0
16.12.2017 20:00:00 1,7 0,8 -0,6 6,1 9,3 3 1 12 6 W 1026,3 9 0 0,0
16.12.2017 19:00:00 2,6 1,9 0,2 6,2 9,3 5 3 12 6 W 1025,1 13 0 0,0
16.12.2017 18:00:00 2,4 1,2 -0,1 6,1 9,4 4 2 10 5 WSW 1024,2 17 0 0,0
16.12.2017 17:00:00 3,6 1,6 3,1 6,0 9,3 7 4 19 10 WNW 1023,4 20 4 0,0
16.12.2017 16:00:00 4,1 2,3 4,3 6,0 9,4 9 5 19 10 NW 1022,6 20 0 0,0
16.12.2017 15:00:00 4,2 2,4 5,2 5,9 9,4 6 3 13 7 WNW 1021,8 20 0 0,0
16.12.2017 14:00:00 3,5 1,7 4,9 5,8 9,4 4 2 8 4 NNW 1021,6 17 0 0,0
16.12.2017 13:00:00 2,8 1,5 4,0 5,8 9,4 5 3 16 9 N 1021,8 17 0 0,0
16.12.2017 12:00:00 2,5 1,3 4,3 5,8 9,4 3 2 7 4 N 1021,3 18 25 0,0
16.12.2017 11:00:00 1,4 0,7 2,7 5,9 9,4 0 0 8 5 N 1020,8 13 36 0,0
16.12.2017 10:00:00 0,0 -0,3 -1,5 6,0 9,4 3 1 6 3 SE 1020,0 8 32 0,0
16.12.2017 09:00:00 -0,3 -0,7 -3,8 6,1 9,4 3 1 8 5 WNW 1019,0 8 8 0,0
16.12.2017 08:00:00 -0,3 -0,9 -4,0 6,2 9,3 4 2 10 5 WNW 1017,8 11 0 0,0
16.12.2017 07:00:00 0,4 0,1 -4,1 6,4 9,3 5 3 10 5 WNW 1017,0 20 0 0,0
16.12.2017 06:00:00 -0,6 -1,0 -3,5 6,5 9,3 3 2 10 5 W 1016,3 13 0 0,0
16.12.2017 05:00:00 0,4 0,0 -3,4 6,7 9,4 6 3 11 6 WNW 1015,9 17 0 0,0
16.12.2017 04:00:00 0,1 -0,6 -3,0 6,9 9,4 0 0 12 6 N 1015,4 11 0 0,0
16.12.2017 03:00:00 0,9 0,3 -2,1 7,0 9,4 3 2 8 5 W 1014,5 18 0 0,0
16.12.2017 02:00:00 1,6 0,7 -1,3 7,1 9,4 4 2 11 6 W 1013,5 17 0 0,0
16.12.2017 01:00:00 2,2 0,9 0,2 7,2 9,4 4 2 15 8 W 1013,0 19 0 0,0
16.12.2017 00:00:00 3,1 2,1 1,9 7,3 9,4 6 3 16 9 WNW 1012,1 20 0 0,0
15.12.2017 23:00:00 3,6 2,9 2,1 7,4 9,3 5 3 18 10 W 1011,3 13 0 0,0
15.12.2017 22:00:00 4,6 3,7 3,8 7,4 9,3 9 5 20 11 W 1010,1 17 0 0,0
15.12.2017 21:00:00 5,4 4,2 4,7 7,5 9,4 9 5 23 12 W 1009,1 19 0 0,0
15.12.2017 20:00:00 5,5 4,5 4,8 7,5 9,3 7 4 17 9 W 1008,1 20 0 0,0
15.12.2017 19:00:00 5,3 4,1 4,8 7,5 9,3 5 3 19 10 WSW 1007,2 20 0 0,0
15.12.2017 18:00:00 5,3 3,8 4,6 7,6 9,3 7 4 39 21 W 1006,8 20 0 0,0
15.12.2017 17:00:00 5,8 3,5 4,9 7,5 9,3 19 10 53 29 WNW 1005,9 20 0 0,0
15.12.2017 16:00:00 5,9 4,5 5,5 7,5 9,3 18 10 50 27 SW 1004,1 20 0 0,6
15.12.2017 15:00:00 6,3 4,9 5,9 7,4 9,3 14 8 27 15 SW 1004,6 13 1 0,4
15.12.2017 14:00:00 6,2 4,5 5,8 7,3 9,3 7 4 22 12 WSW 1005,9 20 6 0,0
15.12.2017 13:00:00 6,1 5,2 5,7 7,3 9,3 6 3 26 14 SW 1006,9 16 0 1,0
15.12.2017 12:00:00 6,2 4,2 6,5 7,3 9,3 10 6 24 13 SW 1007,5 20 6 0,0
15.12.2017 11:00:00 6,8 4,8 5,6 7,4 9,3 9 5 24 13 SW 1008,0 20 39 0,0
15.12.2017 10:00:00 4,9 4,0 3,4 7,4 9,3 5 3 24 13 SW 1008,0 20 24 0,0
15.12.2017 09:00:00 4,2 3,8 2,8 7,5 9,3 7 4 19 10 SW 1007,7 20 9 0,0
15.12.2017 08:00:00 4,3 3,6 3,1 7,6 9,3 6 3 21 12 SW 1007,1 20 0 0,2
15.12.2017 07:00:00 4,2 3,5 3,0 7,6 9,2 6 3 16 8 SW 1006,8 20 0 0,0
15.12.2017 06:00:00 4,6 3,7 3,7 7,7 9,2 7 4 13 7 SSW 1006,2 20 0 0,0
15.12.2017 05:00:00 5,1 3,8 4,4 7,7 9,2 5 3 25 13 WSW 1006,7 20 0 0,0
15.12.2017 04:00:00 5,1 4,2 4,5 7,8 9,2 6 3 14 8 WSW 1006,2 20 0 0,2
15.12.2017 03:00:00 5,0 4,4 4,5 7,8 9,2 4 2 15 8 SSW 1006,4 20 0 1,2
15.12.2017 02:00:00 4,8 4,1 4,3 7,9 9,2 5 3 54 29 NW 1006,9 17 0 4,5
15.12.2017 01:00:00 7,8 7,0 7,4 7,9 9,2 10 5 44 24 W 1006,2 5 0 2,6
15.12.2017 00:00:00 8,9 6,7 7,4 7,9 9,2 16 8 41 22 W 1006,2 12 0 0,0
14.12.2017 23:00:00 8,8 6,6 7,5 7,8 9,2 14 8 50 27 WSW 1006,4 20 0 0,2
14.12.2017 22:00:00 8,9 7,3 8,0 7,9 9,2 15 8 48 26 WSW 1006,6 14 0 0,6
14.12.2017 21:00:00 9,5 6,9 8,2 7,9 9,2 13 7 45 24 W 1006,9 20 0 0,0
14.12.2017 20:00:00 9,6 7,0 8,2 7,9 9,2 13 7 31 17 SW 1007,0 13 0 0,0
14.12.2017 19:00:00 9,7 5,9 8,0 8,0 9,2 11 6 37 20 WSW 1007,5 19 0 0,0
14.12.2017 18:00:00 9,4 5,4 8,0 7,9 9,2 14 7 34 18 SW 1007,8 20 0 0,0
14.12.2017 17:00:00 10,5 5,5 9,7 7,8 9,2 11 6 42 23 WSW 1008,4 20 5 0,0
14.12.2017 16:00:00 11,5 6,2 11,5 7,7 9,1 15 8 45 24 WSW 1008,6 20 37 0,0
14.12.2017 15:00:00 11,7 7,0 11,8 7,6 9,2 13 7 35 19 WSW 1009,2 20 4 0,0
14.12.2017 14:00:00 11,3 7,2 11,8 7,4 9,2 13 7 38 20 WSW 1010,0 20 30 0,0
14.12.2017 13:00:00 11,5 8,0 11,4 7,2 9,2 16 9 35 19 WSW 1011,4 16 17 0,0
14.12.2017 12:00:00 11,1 8,1 10,6 7,1 9,2 10 5 37 20 WSW 1012,5 15 33 0,0
14.12.2017 11:00:00 9,9 8,2 9,7 7,1 9,2 14 8 35 19 SW 1013,3 12 37 0,0
14.12.2017 10:00:00 9,5 8,3 8,0 7,1 9,2 10 6 26 14 SW 1013,9 10 25 0,0
14.12.2017 09:00:00 8,7 7,9 7,3 7,0 9,1 10 5 23 12 SW 1014,3 10 0 0,0
14.12.2017 08:00:00 8,5 7,9 7,0 7,0 9,2 10 6 24 13 SW 1014,2 10 0 0,0
14.12.2017 07:00:00 8,8 8,0 7,8 7,0 9,2 8 4 19 10 WSW 1014,2 11 0 0,0
14.12.2017 06:00:00 8,9 8,1 8,1 6,9 9,2 7 4 23 12 WSW 1013,9 13 0 0,0
14.12.2017 05:00:00 9,0 8,2 8,4 6,9 9,2 7 4 18 10 WSW 1014,2 13 0 0,0
14.12.2017 04:00:00 9,2 8,7 8,8 6,8 9,2 9 5 26 14 WSW 1014,5 17 0 0,0
14.12.2017 03:00:00 9,5 9,0 9,0 6,7 9,2 8 4 26 14 WSW 1014,3 5 0 0,6
14.12.2017 02:00:00 9,7 8,9 9,1 6,6 9,2 12 6 37 20 W 1014,3 7 0 0,0
14.12.2017 01:00:00 9,6 9,1 8,7 6,5 9,2 9 5 26 14 WSW 1014,3 6 0 0,8
14.12.2017 00:00:00 9,2 8,7 8,6 6,5 9,2 10 6 28 15 SW 1014,2 20 0 0,0
13.12.2017 23:00:00 9,2 8,9 8,2 6,4 9,2 10 6 33 18 SW 1014,0 17 0 0,2
13.12.2017 22:00:00 8,5 8,2 7,5 6,3 9,2 18 10 38 20 SW 1013,4 3,4 0 1,0
13.12.2017 21:00:00 7,8 7,4 7,1 6,2 9,2 22 12 40 22 SSW 1013,1 6 0 0,2
13.12.2017 20:00:00 7,5 7,1 6,6 6,2 9,2 22 12 46 25 SSW 1013,7 5 0 0,2
13.12.2017 19:00:00 6,9 6,3 6,5 6,1 9,2 24 13 42 23 SSW 1013,8 3,2 0 0,4
13.12.2017 18:00:00 7,1 6,2 6,1 6,1 9,3 23 12 41 22 SSW 1014,3 18 0 0,2
13.12.2017 17:00:00 6,7 5,8 5,7 6,0 9,3 21 12 36 20 SSW 1015,2 12 0 0,2
13.12.2017 16:00:00 6,1 5,2 5,8 5,9 9,3 18 10 34 18 SSW 1015,8 13 0 0,0
13.12.2017 15:00:00 5,5 4,6 4,9 5,8 9,3 16 8 36 19 SSW 1016,5 20 0 0,0
13.12.2017 14:00:00 4,8 3,9 4,4 5,8 9,3 18 10 44 24 SSW 1017,3 20 0 0,0
13.12.2017 13:00:00 4,4 3,4 3,4 5,7 9,3 16 8 32 17 SSW 1018,4 18 0 1,0
13.12.2017 12:00:00 4,3 1,8 3,4 5,7 9,3 18 10 32 17 SSW 1019,6 9 0 0,8
13.12.2017 11:00:00 4,5 0,6 3,4 5,7 9,3 15 8 33 18 S 1019,8 20 0 0,0
13.12.2017 10:00:00 3,4 0,1 2,2 5,7 9,3 19 10 36 19 S 1020,2 20 0 0,0
13.12.2017 09:00:00 2,9 0,0 1,6 5,7 9,3 14 8 29 15 SSE 1020,4 20 0 0,0
13.12.2017 08:00:00 2,4 0,1 0,9 5,8 9,3 12 7 25 13 SSE 1021,1 20 0 0,0
13.12.2017 07:00:00 2,0 0,2 0,7 5,9 9,3 13 7 22 12 SSE 1021,2 20 0 0,0
13.12.2017 06:00:00 1,7 0,4 0,3 6,0 9,3 12 7 19 10 SSE 1020,9 20 0 0,0
13.12.2017 05:00:00 1,7 0,5 0,3 6,0 9,3 11 6 16 8 SE 1021,9 20 0 0,0
13.12.2017 04:00:00 2,3 0,8 0,6 6,1 9,3 10 5 18 10 SSE 1022,0 20 0 0,0
13.12.2017 03:00:00 2,6 1,0 1,1 6,2 9,3 11 6 20 11 S 1022,0 20 0 0,0
13.12.2017 02:00:00 2,9 1,1 1,7 6,2 9,3 11 6 19 11 S 1022,0 20 0 0,0
13.12.2017 01:00:00 2,6 1,6 0,3 6,2 9,3 9 5 15 8 SSE 1022,4 16 0 0,0
13.12.2017 00:00:00 2,4 1,2 1,9 6,4 9,3 5 3 14 7 NW 1022,7 9 0 0,2
12.12.2017 23:00:00 2,6 1,1 1,3 6,5 9,3 7 4 13 7 S 1022,1 20 0 0,0
12.12.2017 22:00:00 1,9 0,9 -0,3 6,6 9,3 10 5 14 8 SE 1022,1 19 0 0,0
12.12.2017 21:00:00 1,5 0,6 -1,3 6,7 9,3 8 4 14 8 SE 1021,6 20 0 0,0
12.12.2017 20:00:00 0,2 -0,4 -1,8 6,8 9,3 9 5 12 6 SSE 1021,5 15 0 0,0
12.12.2017 19:00:00 0,5 -0,2 -1,4 7,0 9,3 8 4 10 5 SSE 1021,3 11 0 0,0
12.12.2017 18:00:00 2,3 1,3 -0,7 7,0 9,3 5 3 10 5 S 1020,2 18 0 0,0
12.12.2017 17:00:00 3,7 1,7 1,9 7,0 9,3 5 3 9 5 SSW 1019,4 20 13 0,0
12.12.2017 16:00:00 4,9 2,3 4,2 7,0 9,3 4 2 12 6 SSW 1018,6 20 30 0,0
12.12.2017 15:00:00 4,0 2,5 4,2 6,9 9,3 5 3 11 6 WNW 1018,0 20 0 0,0
12.12.2017 14:00:00 4,2 2,9 5,2 6,8 9,3 3 1 10 5 WSW 1017,9 18 4 0,0
12.12.2017 13:00:00 3,4 3,0 4,9 6,8 9,2 6 4 12 6 SW 1017,6 6 0 0,0
12.12.2017 12:00:00 2,7 2,4 3,8 6,8 9,3 3 2 10 6 W 1017,4 2,4 0 0,0
12.12.2017 11:00:00 2,6 2,3 3,5 6,9 9,2 5 3 9 5 W 1016,6 0,3 24 0,0
12.12.2017 10:00:00 2,0 1,9 1,5 7,0 9,2 4 2 6 4 SSW 1015,3 1,1 10 0,0
12.12.2017 09:00:00 1,9 1,8 0,3 7,1 9,2 0 0 9 5 N 1014,2 0,9 6 0,0
12.12.2017 08:00:00 2,0 1,7 -0,6 7,2 9,2 6 3 10 6 NW 1013,0 2,9 0 0,0
12.12.2017 07:00:00 2,3 1,9 0,7 7,2 9,2 4 2 10 6 WNW 1011,5 6 0 0,0
12.12.2017 06:00:00 3,1 2,7 2,3 7,3 9,2 5 3 10 5 WNW 1009,8 7 0 0,0
12.12.2017 05:00:00 3,4 3,0 2,9 7,3 9,2 4 2 9 5 WNW 1008,1 6 0 0,0
12.12.2017 04:00:00 3,5 2,8 3,0 7,4 9,2 3 1 18 10 ENE 1006,3 14 0 0,2
12.12.2017 03:00:00 4,0 3,3 3,9 7,4 9,2 14 8 26 14 N 1005,2 15 0 0,0
12.12.2017 02:00:00 5,0 4,7 4,9 7,5 9,2 8 4 16 8 WNW 1003,7 10 0 0,0
12.12.2017 01:00:00 5,0 4,6 4,8 7,5 9,2 3 2 12 6 W 1002,9 17 0 0,0
12.12.2017 00:00:00 5,7 5,3 5,5 7,5 9,2 6 4 17 9 WNW 1001,6 19 0 0,2
11.12.2017 23:00:00 5,7 5,3 5,5 7,6 9,2 6 4 16 9 WSW 999,8 8 0 0,4
11.12.2017 22:00:00 5,9 5,5 5,6 7,6 9,1 6 3 26 14 WSW 998,4 6 0 1,2

tt = Température de l'air
td = dewpoint
tt 5cm = Température de l'air 5cm
tt -20cm = Température de l'air -20cm
tt -100cm = Température de l'air -100cm
ff = Vitesse du vent
fx = gusts
dd = Direction du vent
ppp = reduced air pressure
vv = visibility
sd = Ensoleillement
rr = Quantités de précipitations

stations d'obs. à proximité